CZ-4B DEB, 43661

Orbit data source: Space-Track

CZ-4B DEB, 43661 is space debris in SSO originally from a launch on Wed, 24 Oct 2018 UTC launched from the Taiyaun Space Center, China (TSC). Debris objects in space refer to the collection of defunct objects orbiting the Earth. Examples of debris include non-operational satellites, rocket bodies, and fragments generated from explosions, collisions, or faulty payload assembly.

Loading next visibility...
Identifier
43661, 2018-081E
Orbit
SSO
Country
Flag of CNCN / PRC
Related business
Manufacturer
SAST
Mission
Spacecraft
Bus & Motor
Unknown
Mass
Unknown
Launch date (UTC)
2018-10-24 (7 years ago)
Launch vehicle
Unknown
Launch site
Taiyaun Space Center, China (TSC)
Object type
Payload
Rocket body
Debris
Shape & HBR
Unknown shape, 0.1 m
Radar Cross Section
Small (<0.1 m²)

Expand to show TLE details & history
Last TLE update: 5 hours ago

TLE from 5 hours ago
0 CZ-4B DEB
1 43661U 18081E   25310.30627030  .00000189  00000-0  19089-3 0  9998
2 43661  99.1506 339.4329 0012605 216.9881 143.0409 13.89392016356652
Epoch: 2025-11-06T07:21Z
TLE epoch observation values (Epoch: 2025-11-06T07:21:01.753Z)
Latitude
-0.00005°
Longitude
-176.59088°
Altitude
940.988 km
Speed
7.378 km/s
True Right ascension
22h 37m 43s
True Declination
0° 00' 00"
Sunlit
Object was in daylight at epoch
Visualization orbit readout
Latitude
Unknown
Longitude
Unknown
Altitude
Unknown
Speed
Unknown
Apparent Right ascension
Unknown
Apparent Declination
Unknown
Sunlit
N/A
Visualization observer readout
Local Sidereal Time
08:26:07
Azimuth
Unknown
Elevation
Unknown
Doppler factor
Unknown
Orbital elements
Apogee altitude
937.193 km
Perigee altitude
918.774 km
Semi-major axis
7,306.12 km
Eccentricity
0.00126
Inclination
99.1506°
RAAN
339.4329°
Arg. of periapsis
216.9881°
True anomaly
143.12764°
Mean anomaly
143.0409°
Eccentric anomaly
143.08428°
Mean motion
3.47547 °/min
Orbital period
103.58 mins
BSTAR
0.00019089
Loading maneuver chart data...
Computing Atmospheric mass density...
Loading historical data...
Loading historical data...
Loading historical data...
Loading historical data...
Loading historical data...
Loading historical data...
Loading historical data...

Documentation

Showing up to 5 results
|